Погода Тас-Тумус

Погода Тас-Тумус : погода сейчас, прогноз погоды и архив. Всё, что Вы хотите узнать о погоде Тас-Тумус!

Поиск расширенной информации на нашем сайте:

Другие новости

Новости СМИ2

Главная страница сайта

Новости сайта

02.10.2013

Напоминаем, что на нашем новом сайте вы можете получить высокодетализированные прогнозы погоды по пунктам России, СНГ и мира (включающие важные для авиации метеовеличины, такие как направление и скорость ветра, видимость, явления погоды, количество и форма облачности, нижняя и верхняя граница облачности), а также ознакомиться с разнообразными материалами по авиационной метеорологии и подборкой полезных ссылок на эту тему.

Сайт Метеоцентр.Азия посвящён разработке технологий оптимизации авиаметеорологического обслуживания, включая проектирование и перспективное создание нескольких автоматизированных авиаметеорологических систем:
- система выпуска высокодетальных прогностических карт явлений погоды для нижнего воздушного пространства по России и ближнему зарубежью;
- система верификации прогнозов TAF (выпускаемых синоптиками официальных АМСГ РФ и ближнего зарубежья) и AUTOTAF (выпускаемых сайтом Метеоцентр.Азия) - выявление ошибок, онлайн-сопоставление с фактической погодой METAR, автоматическое внесение коррективов в прогнозы при резком отклонении фактической погоды от прогноза, подсчёт оправдываемости прогнозов по элементам и в целом;
- система обработки, анализа и отображения авиаметеорологической информации для применения провайдерами метеорологической информации.

Рекомендуем: Welcome to russia посуточная аренда квартир.

Погода Тас-Тумус - сегодня

Время (UTC), дата Ветер
(°,м/с) 
Видим.   Явления Облачность Т
(°С)
Тd
(°С)
f(%) Тe
(°С)
Pmin
(гПа)
dP
(гПа)
Po
(мм)
O2
(г/м3)
Тmin Tmax R s Состояние
почвы
21 16.01.17 тихо ()   20000 м    4/0 верхняя 
[Ci fib]
-41.3 -42.6 87 -41  1039.2  -0.2  770  368           
00 17.01.17 тихо ()   20000 м    3/0 верхняя 
[Ci fib]
-42 -43.8 83 -42  1039.3  -0.1  770  369  -42.4      33  равномерный
сухой снег
100% 
03 17.01.17 тихо ()   20000 м    4/0 верхняя 
[Ci fib]
-41.2 -42.6 86 -41  1039.7  0.6  770  368           
06 17.01.17 тихо ()   20000 м    4/0 верхняя 
[Ci fib]
-39.1 -40.6 86 -39  1038.9  -0.7  770  364           
09 17.01.17 тихо ()   20000 м    4/0 верхняя 
[Ci fib]
-40.5 -42.1 84 -41  1039.4  0.4  770  366           
15 17.01.17 тихо ()   20000 м    8/0 верхняя 
[Ci fib]
-38.2 -39.7 86 -38  1039.3  770  363           
18 17.01.17 тихо ()   20000 м    10/0 верхняя 
[Cs]
-37.8 -39.3 86 -38  1039.2  770  362           
21 17.01.17 тихо ()   20000 м    10/0 средняя 
[As trans]
-36.8 -38.5 84 -37  1038.5  -0.7  769  360           
00 18.01.17 тихо ()   20000 м    10/0 средняя 
[As trans]
-36.5 -38.2 84 -37  1038.4  -0.1  770  360  -38.7      33  равномерный
сухой снег
100% 
03 18.01.17 тихо ()   20000 м    9/0 средняя, верхняя 
[As trans|Ci fib]
-36 -37.8 83 -36  1038.1  -0.3  769  359           
06 18.01.17 тихо ()   20000 м    10/0 средняя, верхняя 
[As trans|Ci fib]
-35.6 -37.1 86 -36  1037.4  -0.6  769  358           
09 18.01.17 100 (В) 20000 м    9/0 средняя, верхняя 
[As trans|Ci fib]
-36.3 -37.8 86 -37  1037.4  -0.1  769  359           
12 18.01.17 120 (ЮВ) 20000 м    6/0 средняя, верхняя 
[As trans|Ci fib]
-36.8 -38.5 84 -38  1037.1  -0.3  768  360    -35.5       
15 18.01.17 120 (ЮВ) 20000 м    9/0 средняя, верхняя 
[As trans|Ci fib]
-36.5 -38.2 84 -38  1036.6  -0.5  768  359           
18 18.01.17 120 (ЮВ) 20000 м    10/0 средняя, верхняя 
[Ac trans|Ci fib]
-35.8 -37.5 84 -40  1035.8  -0.7  767  358           
21 18.01.17 120 (ЮВ) 20000 м    10/0 средняя, верхняя 
[Ac trans|Ci fib]
-35.4 -37.1 84 -40  1035.3  -0.5  767  357           
00 19.01.17 120 (ЮВ) 20000 м    10/0 средняя, верхняя 
[Ac trans|Ci fib]
-35 -36.8 83 -41  1034.8  -0.4  767  356  -37.1      33  равномерный
сухой снег
100% 
03 19.01.17 110 (В) 20000 м    10/0 средняя, верхняя 
[As trans|Ci fib]
-34.7 -36.5 84 -41  1034  -0.8  766  356           
06 19.01.17 130 (ЮВ) 20000 м    9/0 средняя, верхняя 
[As trans|Ci fib]
-33.9 -35.6 85 -40  1033  -0.9  765  354           
09 19.01.17 130 (ЮВ) 20000 м    9/0 средняя, верхняя 
[As trans|Ci fib]
-35 -36.8 83 -41  1032.7  -0.4  765  356           
12 19.01.17 130 (ЮВ) 20000 м    8/0 верхняя 
[Ci fib]
-35.4 -37.1 84 -42  1032.6  -0.1  765  356    -33.4       
15 19.01.17 130 (ЮВ) 20000 м    6/0 верхняя 
[Ci fib]
-35.8 -37.5 84 -42  1031.7  -0.9  764  357           
18 19.01.17 130 (ЮВ) 20000 м    6/0 верхняя 
[Ci fib]
-36.1 -37.8 84 -40  1031.8  764  357           
21 19.01.17 130 (ЮВ) 20000 м    4/0 верхняя 
[Ci fib]
-36.6 -38.2 85 -41  1031.5  -0.3  764  358           
00 20.01.17 130 (ЮВ) 20000 м    3/0 верхняя 
[Ci fib]
-36.5 -38.2 84 -41  1031.5  764  358  -36.8      33  равномерный
сухой снег
100% 
Время (UTC), дата Ветер
(°,м/с) 
Видим.   Явления Облачность Т
(°С)
Тd
(°С)
f(%) Тe
(°С)
Pmin
(гПа)
dP
(гПа)
Po
(мм)
O2
(г/м3)
Тmin Tmax R s Состояние
почвы

Для получения пояснительной информации подведите курсор к названию столбца.

ПОГОДА Тас-Тумус - архив

Всё, что Вы хотите узнать о погоде Тас-Тумус - удобно и подробно!

Выберите нужную дату (начиная с 1 января 2015* года) и нажмите кнопку "Найти".
Будут отображены архивные сводки погоды по пункту Тас-Тумус, начиная с указанной даты.


Отображать данные в формате CSV (для использования в таблицах Excel)


Внимание! Наш архив погоды предназначен исключительно для личного некоммерческого использования в познавательных целях. Если Вам необходимы официальные справки о состоянии погоды (для производственных, юридических, коммерческих и т.п. целей), обращайтесь в органы Росгидромета.

*Примечание: данная дата относится к архиву по метеостанциям СССР (Россия, СНГ, Балтия).
Архив по метеостанциям Зарубежной Европы и Азии (кроме Китая) хранится 10 дней, по другим регионам земного шара (Китай, Африка, Америка, Австралия, Океания) - 1 день.

Тас-Тумус - район местоположения метеостанции


Название, широта, долгота, высота метеостанции:
Тас-Тумус 64.2°ш. 126.6°д. 76 м над ур. моря [Российская Федерация]

Дополнительная информация

В oтличие oт бoльшинства пoгoдных сайтoв мы публикуем пoдрoбную метеoинфoрмацию в детальнoм прoфессиoнальнoм фoрмате.

Характеристики температуры и влажнoсти вoздуха измеряются на высoте 2 м в тени вдали oт зданий и деревьев.
Скoрoсть ветра измеряется на высoте 10 м (на урoвне рoста челoвека скoрoсть ветра ниже в 1.5-2 раза). Если метеoстанция нахoдится в гoрoде или в лесу, тo скoрoсть ветра занижена на 2-4 м/с пo сравнению с oткрытым местoм. Скoрoсть ветра над акватoриями крупных рек и oзёр, а также на вершинах хoлмoв на 2-5 м/с выше, чем в oбычных услoвиях.
Атмoсфернoе давление в разных тoчках местнoсти мoжет значительнo oтличаться oт давления на метеoстанции, в зависимoсти oт услoвий рельефа (при пoдъёме на 10 м давление пoнижается примернo на 1 мм рт.ст.).